[[[{"header":{"parameterUnit":"kt","parameterCategory":2,"dx":1,"dy":1,"la1":30.253999710083008,"la2":30.299108505249023,"lo1":-89.0895004272461,"lo2":-89.04439544677734,"nx":28,"ny":28,"refTime":"2022-09-27T15:00:00:Z","depth":0,"parameterNumber":1,"parameterNumberName":"U-component_of_WINDS"},"data":[-8.3028,-8.3276,-8.3242,-8.3509,-8.3523,-8.37,-8.3752,-8.3816,-8.3857,-8.4062,-8.4174,-8.4164,-8.4192,-8.4316,-8.4435,-8.4428,-8.4483,-8.4595,-8.4568,-8.4097,-8.4029,-8.3965,-8.3906,-8.4606,-8.4607,-8.5063,-8.5068,-8.5071,-8.2685,-8.2702,-8.2833,-8.2937,-8.3049,-8.292,-8.2991,-8.3094,-8.3255,-8.3307,-8.3415,-8.3593,-8.3728,-8.3717,-8.3842,-8.3956,-8.3904,-8.3993,-8.3987,-8.3994,-8.3487,-8.3425,-8.4033,-8.4033,-8.4033,-8.4032,-8.4032,-8.4032,-8.2051,-8.22,-8.2244,-8.2385,-8.2427,-8.2497,-8.2634,-8.2618,-8.2745,-8.2872,-8.2804,-8.2986,-8.3031,-8.3164,-8.3199,-8.3339,-8.3235,-8.3322,-8.3345,-8.337,-8.3403,-8.2756,-8.3357,-8.3355,-8.3353,-8.3352,-8.3351,0,-8.1578,-8.154,-8.1662,-8.1776,-8.1877,-8.1961,-8.2032,-8.2115,-8.202,-8.213,-8.2284,-8.2367,-8.2531,-8.2673,-8.2781,-8.2799,-8.2681,-8.2662,-8.2723,-8.2763,-8.2784,-8.2781,-8.1961,-8.2647,-8.2641,-8.2636,-8.2633,-8.263,-8.0941,-8.1118,-8.1146,-8.1237,-8.1267,-8.1415,-8.1496,-8.1399,-8.1489,-8.1562,-8.1698,-8.1837,-8.1945,-8.2198,-8.2178,-8.2301,-8.2245,-8.2511,-8.2263,-8.2292,-8.2256,-8.2249,-8.2268,-8.2564,-8.2573,-8.258,-8.2585,0,-8.0587,-8.0529,-8.0793,-8.0802,-8.0809,-8.1,-8.1008,-8.1152,-8.112,-8.1315,-8.1354,-8.1306,-8.146,-8.1396,-8.1557,-8.152,-8.1835,-8.1774,-8.1819,-8.1805,-8.2041,-8.2023,-8.2808,-8.2907,-8.2175,-8.2182,-8.2187,0,-8.0024,-8.026,-8.0161,-8.0317,-8.0575,-8.0471,-8.0729,-8.0728,-8.0765,-8.0917,-8.0768,-8.0915,-8.0809,-8.0946,-8.0891,-8.1135,-8.1164,-8.1152,-8.1136,-8.117,-8.1173,-8.1222,-8.1191,-8.1085,-8.1081,-8.1077,-8.1074,0,-7.9481,-7.9702,-7.9953,-7.9995,-8.0029,-8.015,-8.0169,-8.0209,-8.029,-8.0383,-8.0434,-8.055,-8.0616,-8.0707,-8.0637,-8.0471,-8.0932,-8.069,-8.0921,-8.0924,-8.1033,-8.1028,-8.1733,-8.1069,-8.1068,-8.1067,-8.1066,0,-7.902,-7.9116,-7.9488,-7.9513,-7.9575,-7.974,-7.9848,-7.9974,-8.0027,-8.0003,-8.0075,-7.997,-8.0175,-7.994,-8.0223,-8.0028,-8.0101,-8.0106,-8.0121,-8.0142,-7.9883,-8.0298,-8.0969,-8.1041,-8.0153,-8.0145,-8.0138,0,-7.8416,-7.8775,-7.8689,-7.9044,-7.9202,-7.9025,-7.9206,-7.9257,-7.924,-7.937,-7.9348,-7.9499,-7.931,-7.9349,-7.9496,-7.9483,-7.9735,-7.9445,-7.9641,-7.9649,-7.9638,-8.0254,-8.0374,-8.0828,-8.004,-8.005,-8.0057,0,-7.7942,-7.7981,-7.8051,-7.8094,-7.8145,-7.8276,-7.8483,-7.8608,-7.8701,-7.8773,-7.8947,-7.9153,-7.902,-7.9086,-7.9012,-7.917,-7.9561,-7.9007,-7.9006,-7.9114,-7.9983,-8.0096,-8.0173,-7.9477,-7.9489,-7.9498,-7.9979,0,-7.7269,-7.7439,-7.7622,-7.7723,-7.7813,-7.803,-7.7963,-7.8065,-7.7985,-7.7962,-7.8213,-7.824,-7.8369,-7.8436,-7.8361,-7.8739,-7.8667,-7.8524,-7.8297,-7.8699,-7.8856,-7.892,-7.8067,-7.806,-7.8054,-7.8049,0,0,-7.6709,-7.6952,-7.6851,-7.7049,-7.7119,-7.6933,-7.7173,-7.7219,-7.7319,-7.7372,-7.7242,-7.7541,-7.7569,-7.7882,-7.8002,-7.8052,-7.8115,-7.7978,-7.8506,-7.8558,-7.8605,-7.8775,-7.8842,-7.8038,-7.8036,-7.8034,-7.8032,0,-7.645,-7.6479,-7.6716,-7.6759,-7.6819,-7.6782,-7.6839,-7.6867,-7.6863,-7.7107,-7.6954,-7.7096,-7.7337,-7.7388,-7.7446,-7.7936,-7.7815,-7.7979,-7.8268,-7.8448,-7.8507,-7.8559,-7.8739,-7.8803,-7.8017,-7.8018,-7.8019,0,-7.5976,-7.5995,-7.6101,-7.6249,-7.6288,-7.6454,-7.6196,-7.6381,-7.6504,-7.6294,-7.654,-7.6547,-7.6608,-7.6911,-7.7044,-7.6931,-7.7546,-7.7338,-7.7374,-7.739,-7.7561,-7.7633,-7.7696,-7.6861,-7.6857,-7.6854,0,0,-7.5762,-7.5919,-7.591,-7.6189,-7.6223,-7.6172,-7.6253,-7.6183,-7.6241,-7.6266,-7.6272,-7.6335,-7.6473,-7.6568,-7.6694,-7.7035,-7.7043,-7.7199,-7.7253,-7.7298,-7.7338,-7.7522,-7.7592,-7.684,-7.6839,-7.6839,0,0,-7.566,-7.5661,-7.557,-7.5885,-7.5945,-7.5957,-7.613,-7.602,-7.6127,-7.6095,-7.5986,-7.5998,-7.6279,-7.6292,-7.611,-7.6613,-7.6388,-7.643,-7.6596,-7.6663,-7.6717,-7.6711,-7.5854,0,0,0,0,0,-7.5362,-7.566,-7.5578,-7.562,-7.5808,-7.6001,-7.6025,-7.5941,-7.5783,-7.5923,-7.591,-7.5773,-7.6171,-7.6008,-7.6052,-7.6259,-7.6657,-7.669,-7.672,-7.7014,-7.7085,-7.7146,0,0,0,0,0,0,-7.5378,-7.543,-7.5569,-7.5595,-7.5636,-7.599,-7.5705,-7.569,-7.5767,-7.5737,-7.578,-7.5775,-7.5708,-7.5979,-7.6021,-7.6218,-7.5839,-7.667,-7.6697,-7.6722,-7.7038,-7.7097,-7.7147,0,0,0,0,0,-7.539,-7.5432,-7.5756,-7.559,-7.5626,-7.5585,-7.5693,-7.5678,-7.5736,-7.5718,-7.5708,-7.5666,-7.5715,-7.5745,-7.6003,-7.6202,-7.581,-7.5826,-7.6688,-7.6709,-7.6729,-7.7067,0,0,0,0,0,0,-7.5399,-7.5421,-7.5761,-7.5769,-7.5471,-7.5564,-7.5575,-7.5669,-7.571,-7.5704,-7.5597,-7.5574,-7.5725,-7.5745,-7.5769,-7.6201,-7.5786,-7.5802,-7.5812,-7.6704,-7.6721,-7.6736,0,0,0,0,0,0,-7.5397,-7.5429,-7.5765,-7.562,-7.561,-7.5545,-7.5555,-7.5762,-7.5713,-7.5587,-7.5568,-7.5586,-7.569,-7.5748,-7.5765,-7.6092,-7.5768,-7.5783,-7.5794,-7.58,-7.6718,-7.6731,0,0,0,0,0,0,-7.5409,-7.5436,-7.5617,-7.561,-7.56,-7.5682,-7.5726,-7.5924,-7.5588,-7.5588,-7.5555,-7.554,-7.5697,-7.5712,-7.5764,-7.6085,-7.609,-7.5768,-7.5779,-7.5786,-7.5791,0,0,0,0,0,0,0,-7.5418,-7.5258,-7.5714,-7.5602,-7.5593,-7.5841,-7.5843,-7.5845,-7.5585,-7.5572,-7.5559,-7.5547,-7.568,-7.5697,-7.5714,-7.6078,0,0,-7.5767,-7.5774,0,0,0,0,0,0,0,0,-7.5245,-7.5255,-7.5715,-7.5716,-7.5718,-7.5841,-7.5843,-7.5845,-7.5582,-7.5572,-7.5561,-7.5552,-7.5684,-7.5698,-7.5712,0,0,0,0,0,0,0,0,0,0,0,0,0,0,0,-7.5715,-7.5716,0,-7.5842,-7.5843,-7.5844,-7.5581,-7.5572,-7.5564,-7.5556,-7.5688,-7.5699,-7.5711,0,0,0,0,0,0,0,0,0,0,0,0,0,0,0,0,0,0,0,0,0,0,0,0,0,0,0,0,0,0,0,0,0,0,0,0,0,0,0,0,0,0,0,0,0,0,0,0,0,0,0,0,0,0,0,0,0,0,0,0,0,0,0,0,0,0,0,0,0]}],[{"header":{"parameterUnit":"kt","parameterCategory":2,"dx":1,"dy":1,"la1":30.253999710083008,"la2":30.299108505249023,"lo1":-89.0895004272461,"lo2":-89.04439544677734,"nx":28,"ny":28,"refTime":"2022-09-27T15:00:00:Z","depth":0,"parameterNumber":2,"parameterNumberName":"V-component_of_WINDS"},"data":[-16.4476,-16.4765,-16.4748,-16.5068,-16.5106,-16.5319,-16.5389,-16.5477,-16.554,-16.5788,-16.5927,-16.5934,-16.5986,-16.6142,-16.6287,-16.6285,-16.6348,-16.6463,-16.6442,-16.5946,-16.5876,-16.5809,-16.5741,-16.6478,-16.6478,-16.6957,-16.6962,-16.6965,-16.4112,-16.4155,-16.432,-16.4467,-16.4607,-16.4485,-16.459,-16.4714,-16.4906,-16.4987,-16.5122,-16.5337,-16.5502,-16.5514,-16.5667,-16.5796,-16.5745,-16.5839,-16.5829,-16.5839,-16.5308,-16.5237,-16.5878,-16.5878,-16.5877,-16.5877,-16.5877,-16.5877,-16.3446,-16.362,-16.37,-16.3878,-16.3947,-16.4044,-16.4205,-16.4212,-16.4369,-16.4532,-16.4476,-16.4691,-16.4764,-16.4938,-16.499,-16.5153,-16.5045,-16.514,-16.5163,-16.5188,-16.522,-16.4531,-16.5178,-16.5176,-16.5174,-16.5173,-16.5171,0,-16.2952,-16.2927,-16.3083,-16.3236,-16.3364,-16.3478,-16.3579,-16.3678,-16.3609,-16.3742,-16.393,-16.4035,-16.4238,-16.441,-16.4548,-16.4582,-16.4464,-16.4449,-16.4514,-16.4546,-16.4557,-16.4555,-16.3691,-16.4431,-16.4424,-16.442,-16.4416,-16.4414,-16.2279,-16.2484,-16.2558,-16.267,-16.2721,-16.2903,-16.3006,-16.2931,-16.3043,-16.3152,-16.3307,-16.3479,-16.3613,-16.3913,-16.3912,-16.4063,-16.4007,-16.4292,-16.4028,-16.405,-16.4011,-16.4,-16.4019,-16.4345,-16.4354,-16.4361,-16.4367,0,-16.1901,-16.187,-16.2182,-16.2233,-16.2251,-16.2469,-16.2509,-16.2677,-16.2663,-16.2892,-16.2941,-16.2918,-16.3102,-16.3055,-16.3254,-16.3223,-16.3573,-16.3514,-16.3547,-16.3533,-16.3784,-16.3761,-16.4604,-16.471,-16.3946,-16.3953,-16.3959,0,-16.1313,-16.1586,-16.1523,-16.1706,-16.2004,-16.1921,-16.2217,-16.2234,-16.2298,-16.2477,-16.2337,-16.2507,-16.242,-16.2582,-16.2537,-16.2814,-16.2851,-16.2844,-16.2829,-16.2858,-16.2859,-16.2914,-16.2879,-16.2786,-16.2782,-16.2778,-16.2775,0,-16.0726,-16.101,-16.1307,-16.1366,-16.1446,-16.1586,-16.1625,-16.1694,-16.1796,-16.1918,-16.1982,-16.2129,-16.2211,-16.2325,-16.2266,-16.209,-16.2604,-16.2349,-16.2596,-16.2598,-16.2713,-16.2707,-16.3466,-16.2769,-16.2768,-16.2767,-16.2765,0,-16.0246,-16.0378,-16.0812,-16.0875,-16.0952,-16.1146,-16.1288,-16.1443,-16.1526,-16.1511,-16.1606,-16.1507,-16.1746,-16.1496,-16.1823,-16.1609,-16.1696,-16.171,-16.1727,-16.1746,-16.1468,-16.1902,-16.2629,-16.2704,-16.1762,-16.1754,-16.1746,0,-15.9581,-16.0012,-15.9945,-16.0358,-16.055,-16.0381,-16.0593,-16.0672,-16.067,-16.0828,-16.0822,-16.1004,-16.0808,-16.0857,-16.1026,-16.1027,-16.1304,-16.0987,-16.1212,-16.1221,-16.1197,-16.1865,-16.1986,-16.2475,-16.1639,-16.165,-16.1658,0,-15.9062,-15.916,-15.924,-15.9303,-15.9397,-15.9556,-15.9801,-15.9963,-16.0073,-16.0176,-16.0377,-16.063,-16.0491,-16.0575,-16.0509,-16.0687,-16.1113,-16.0514,-16.0515,-16.0624,-16.158,-16.1694,-16.1777,-16.1029,-16.1042,-16.1052,-16.1573,0,-15.8345,-15.8556,-15.8767,-15.8914,-15.903,-15.9286,-15.924,-15.9366,-15.9292,-15.9284,-15.9578,-15.9629,-15.9791,-15.9872,-15.9801,-16.0224,-16.0145,-15.9995,-15.9749,-16.0188,-16.0358,-16.0427,-15.9499,-15.9491,-15.9485,-15.948,0,0,-15.7716,-15.8018,-15.7937,-15.8173,-15.8266,-15.8087,-15.8365,-15.8433,-15.8576,-15.8642,-15.8504,-15.8869,-15.8916,-15.9278,-15.9411,-15.9477,-15.9548,-15.9396,-15.9979,-16.0035,-16.0087,-16.0269,-16.0343,-15.9468,-15.9466,-15.9464,-15.9462,0,-15.7445,-15.7504,-15.7782,-15.7849,-15.7947,-15.7926,-15.7993,-15.8057,-15.8064,-15.8353,-15.8199,-15.8369,-15.8664,-15.8733,-15.8808,-15.9352,-15.9224,-15.9404,-15.9714,-15.9916,-15.9981,-16.0038,-16.0231,-16.0301,-15.9446,-15.9447,-15.9448,0,-15.6925,-15.6975,-15.7105,-15.7309,-15.7371,-15.7572,-15.7302,-15.7526,-15.7673,-15.7462,-15.7752,-15.7774,-15.7863,-15.8212,-15.8367,-15.8245,-15.8933,-15.8707,-15.8746,-15.8762,-15.8955,-15.9033,-15.9102,-15.8193,-15.8188,-15.8184,0,0,-15.6697,-15.6893,-15.6921,-15.7247,-15.7297,-15.7269,-15.7371,-15.7308,-15.7395,-15.743,-15.7455,-15.7542,-15.7711,-15.7824,-15.7981,-15.8371,-15.8382,-15.8555,-15.8614,-15.8662,-15.8705,-15.8911,-15.8988,-15.8169,-15.8169,-15.8168,0,0,-15.6586,-15.6634,-15.6545,-15.6918,-15.7008,-15.7054,-15.7254,-15.7145,-15.7281,-15.7246,-15.7147,-15.7166,-15.7491,-15.7518,-15.7314,-15.7891,-15.7648,-15.7695,-15.7862,-15.7936,-15.7994,-15.7981,-15.7043,0,0,0,0,0,-15.6286,-15.6627,-15.6547,-15.6602,-15.6859,-15.71,-15.7131,-15.706,-15.6889,-15.7048,-15.7051,-15.6909,-15.7387,-15.7205,-15.7259,-15.7488,-15.7967,-15.8003,-15.8036,-15.8343,-15.8421,-15.8487,0,0,0,0,0,0,-15.6307,-15.6376,-15.6537,-15.6601,-15.6657,-15.7087,-15.6782,-15.6771,-15.687,-15.6839,-15.6913,-15.6911,-15.6852,-15.7171,-15.7222,-15.744,-15.7025,-15.7981,-15.8011,-15.8039,-15.837,-15.8434,-15.8488,0,0,0,0,0,-15.6324,-15.6379,-15.681,-15.6595,-15.6644,-15.663,-15.6768,-15.6757,-15.6832,-15.6838,-15.6832,-15.6769,-15.686,-15.6897,-15.7201,-15.7419,-15.699,-15.7009,-15.8001,-15.8025,-15.8046,-15.8401,0,0,0,0,0,0,-15.6336,-15.6369,-15.6818,-15.683,-15.6461,-15.6605,-15.6625,-15.6746,-15.6822,-15.682,-15.6687,-15.6662,-15.687,-15.6897,-15.6927,-15.7416,-15.6961,-15.6981,-15.6993,-15.8019,-15.8038,-15.8054,0,0,0,0,0,0,-15.6338,-15.6381,-15.6824,-15.666,-15.6652,-15.6582,-15.66,-15.6846,-15.6826,-15.6667,-15.6648,-15.6675,-15.6824,-15.6899,-15.6921,-15.7309,-15.6939,-15.6957,-15.697,-15.6979,-15.8034,-15.8049,0,0,0,0,0,0,-15.6355,-15.6391,-15.6656,-15.665,-15.6643,-15.6773,-15.6797,-15.7063,-15.6689,-15.6666,-15.6653,-15.6636,-15.6831,-15.6851,-15.6919,-15.7298,-15.7306,-15.6939,-15.6952,-15.6961,-15.6967,0,0,0,0,0,0,0,-15.6368,-15.6145,-15.6747,-15.6643,-15.6635,-15.6943,-15.6946,-15.6949,-15.6685,-15.6671,-15.6656,-15.6643,-15.6833,-15.6853,-15.6874,-15.7289,0,0,-15.6938,-15.6947,0,0,0,0,0,0,0,0,-15.6128,-15.6141,-15.6747,-15.675,-15.6752,-15.6943,-15.6946,-15.6948,-15.6683,-15.6671,-15.6659,-15.6649,-15.6838,-15.6855,-15.6871,0,0,0,0,0,0,0,0,0,0,0,0,0,0,0,-15.6747,-15.6749,0,-15.6944,-15.6946,-15.6948,-15.6681,-15.6671,-15.6662,-15.6653,-15.6843,-15.6856,-15.687,0,0,0,0,0,0,0,0,0,0,0,0,0,0,0,0,0,0,0,0,0,0,0,0,0,0,0,0,0,0,0,0,0,0,0,0,0,0,0,0,0,0,0,0,0,0,0,0,0,0,0,0,0,0,0,0,0,0,0,0,0,0,0,0,0,0,0,0,0]}]]]